Tracking 21473 objects as of 27-Sep-2020
HD Live streaming from Space Station
objects crossing your sky now

STARLINK-1351

Track STARLINK-1351 now!
10-day predictions
STARLINK-1351 is classified as:


NORAD ID: 45697
Int'l Code: 2020-035AS
Perigee: 511.6 km
Apogee: 513.7 km
Inclination: 53.0 °
Period: 94.7 minutes
Semi major axis: 6883 km
RCS: Unknown
Launch date: June 4, 2020
Source: United States (US)
Launch site: AIR FORCE EASTERN TEST RANGE (AFETR)
aabbcc
Your satellite tracking list
Your tracking list is empty




NASA's NSSDC Master Catalog

Two Line Element Set (TLE):
1 45697U 20035AS  20271.58337963 -.00971607 +00000-0 -48118-1 0  9992
2 45697 053.0023 326.3768 0001550 068.0341 048.9247 15.20119956001761
Source of the keplerian elements: AFSPC